Regional Weather Roundup
Issued by NWS

Home | Current Version | Previous Version | Graphics & Text | Print | Product List | Glossary On
Versions: 1 2 3 4 5 6 7 8 9 10 11 12 13 14 15 16 17 18 19 20 21 22 23 24 25 26 27 28 29 30 31 32 33 34 35 36 37 38 39 40 41 42 43 44 45 46 47 48 49 50
784
ASUS44 KMEG 252100
RWRTN
TENNESSEE HOURLY STATE WEATHER ROUNDUP
NATIONAL WEATHER SERVICE MEMPHIS TN
400 PM CDT SAT MAR 25 2017

TNZ002-004-019-021-049-052-054-088>092-252200-
WEST TENNESSEE

CITY           SKY/WX    TMP DP  RH WIND       PRES   REMARKS
MEMPHIS INTL   CLOUDY    69  58  67 S17       29.88F
NWS MEMPHIS      N/A     66 N/A N/A MISG        N/A
JACKSON        CLOUDY    65  58  78 S10G20    29.93S
DYERSBURG      PTSUNNY   65  58  78 S8G21     29.89F
PARIS          MOSUNNY   63  55  77 S16       29.93F
$$

TNZ008-025-027-028-033-062-065-066-252200-
NORTH MIDDLE TENNESSEE

CITY           SKY/WX    TMP DP  RH WIND       PRES   REMARKS
NASHVILLE      LGT RAIN  67  60  78 S14       30.01S
CLARKSVILLE    LGT RAIN  66  55  67 S14       29.96F
SMYRNA         LGT RAIN  64  60  87 S10       30.03R
CROSSVILLE     CLOUDY    69  48  47 S12       30.09F
$$

TNZ061-075-076-078-094-096-097-252200-
SOUTH MIDDLE TENNESSEE

CITY           SKY/WX    TMP DP  RH WIND       PRES   REMARKS
TULLAHOMA      PTSUNNY   61  55  82 SW16      30.08R
WINCHESTER     PTSUNNY   73  54  49 S13       30.03F
COLUMBIA       MOSUNNY   70  57  64 S13       29.98F
SHELBYVILLE    CLOUDY   N/A N/A N/A MISG      30.06S
$$

TNZ017-018-042-046-047-252200-
NORTHEAST TENNESSEE

CITY           SKY/WX    TMP DP  RH WIND       PRES   REMARKS
TRI CITIES     PTSUNNY   76  48  37 SW10      30.12F
$$

TNZ012-013-036-069-073-074-252200-
CENTRAL EAST TENNESSEE

CITY           SKY/WX    TMP DP  RH WIND       PRES   REMARKS
KNOXVILLE      PTSUNNY   75  48  38 S9        30.08F
OAK RIDGE      MOSUNNY   77  47  34 SW9G17    30.09F
GATLINBURG     SUNNY     75  45  33 SW8       30.08F
$$

TNZ083-085-099-252200-
SOUTHEAST TENNESSEE

CITY           SKY/WX    TMP DP  RH WIND       PRES   REMARKS
CHATTANOOGA    PTSUNNY   77  49  37 S10       30.05F
$$

SKY/WX REPORTED AS FAIR MEANS FEW OR NO CLOUDS BELOW
12 THOUSAND FEET.





USA.gov is the U.S. government's official web portal to all federal, state and local government web resources and services.